Terminal Aerodrome Forecast
Issued by NWS

Home | Current Version | Previous Version | Graphics & Text | Print | Product List | Glossary On
Versions: 1 2 3 4 5 6 7 8 9 10 11 12 13 14 15 16 17
000
FTUS43 KICT 311700
TAFHUT
TAF
KHUT 311722Z 3118/0118 VRB03KT P6SM SCT040
     FM010100 VRB03KT P6SM SKC
      TEMPO 0110/0114 3SM BR=

USA.gov is the U.S. government's official web portal to all federal, state and local government web resources and services.